EW7191 Weather Reports


Display with metric or nautical units.
time (UTC)temp
F
wind
direction
speed
MPH
gust
MPH
rain 1hr
in
rain 24hr
in
rain mn
in
humidity
%
barometer
mb
20260508051556 59 254 0.0 0.0 0.00 0.00 0.00 75 1022.2
20260508050055 60 254 0.0 0.0 0.00 0.00 0.00 73 1022.0
20260508044554 61 254 0.0 0.0 0.00 0.00 0.00 71 1021.8
20260508043054 62 254 0.0 0.0 0.00 0.00 0.00 69 1021.6
20260508041552 63 254 0.0 0.0 0.00 0.00 0.00 67 1021.3
20260508040055 64 255 0.0 0.0 0.00 0.00 0.00 66 1020.9
20260508034552 65 254 0.0 0.0 0.00 0.00 0.00 63 1020.7
20260508033052 67 254 0.0 0.0 0.00 0.00 0.00 60 1020.4
20260508031550 70 254 0.0 0.0 0.00 0.00 0.00 55 1020.0
20260508030050 73 254 0.0 0.0 0.00 0.00 0.00 49 1019.8
20260508024553 74 295 0.0 0.0 0.00 0.00 0.00 45 1019.7
20260508023049 76 317 0.0 0.0 0.00 0.00 0.00 42 1019.8
20260508021553 77 304 0.0 0.0 0.00 0.00 0.00 41 1019.7
20260508020049 78 322 0.0 0.0 0.00 0.00 0.00 39 1019.6
20260508014551 79 328 0.0 1.0 0.00 0.00 0.00 38 1019.7
20260508013048 81 326 0.0 1.0 0.00 0.00 0.00 35 1019.6
20260508011546 83 307 0.0 0.0 0.00 0.00 0.00 34 1019.5
20260508010045 83 128 0.0 1.0 0.00 0.00 0.00 33 1019.5
20260508004546 84 84 0.0 3.0 0.00 0.00 0.00 33 1019.6
20260508003044 85 82 0.0 2.0 0.00 0.00 0.00 31 1019.6
20260508001542 85 319 0.0 1.0 0.00 0.00 0.00 29 1019.6
20260508000042 85 271 0.0 0.0 0.00 0.00 0.00 28 1019.6
20260507234539 85 226 0.0 0.0 0.00 0.00 0.00 33 1019.6
20260507233043 84 79 0.0 1.0 0.00 0.00 0.00 28 1019.7
20260507231538 84 324 0.0 1.0 0.00 0.00 0.00 30 1019.8
20260507230041 84 103 0.0 0.0 0.00 0.00 0.00 32 1019.9
20260507224540 85 297 0.0 2.0 0.00 0.00 0.00 32 1020.2
20260507223033 83 169 0.0 0.0 0.00 0.00 0.00 32 1020.3
20260507221535 83 241 0.0 0.0 0.00 0.00 0.00 33 1020.5
20260507220025 82 140 0.0 0.0 0.00 0.00 0.00 35 1020.8
20260507214523 83 323 0.0 1.0 0.00 0.00 0.00 34 1021.0
20260507213022 82 323 0.0 0.0 0.00 0.00 0.00 36 1021.1
20260507211523 81 270 0.0 0.0 0.00 0.00 0.00 33 1021.3
20260507210016 80 102 0.0 0.0 0.00 0.00 0.00 34 1021.4
20260507204513 80 271 0.0 0.0 0.00 0.00 0.00 41 1021.6
20260507203011 79 359 0.0 0.0 0.00 0.00 0.00 40 1021.7
20260507201508 77 80 0.0 0.0 0.00 0.00 0.00 44 1021.8
20260507200006 77 264 0.0 0.0 0.00 0.00 0.00 45 1022.0
20260507194504 77 276 0.0 0.0 0.00 0.00 0.00 44 1022.2
20260507193003 77 158 0.0 0.0 0.00 0.00 0.00 46 1022.5
20260507191603 76 162 0.0 0.0 0.00 0.00 0.00 47 1022.6
20260507184557 73 82 0.0 1.0 0.00 0.00 0.00 52 1023.1
20260507183049 71 272 0.0 0.0 0.00 0.00 0.00 59 1023.2
20260507181543 69 281 0.0 0.0 0.00 0.00 0.00 60 1023.4
20260507180046 69 59 0.0 0.0 0.00 0.00 0.00 63 1023.6
20260507174538 67 259 0.0 0.0 0.00 0.00 0.00 65 1023.8
20260507173034 66 27 0.0 0.0 0.00 0.00 0.00 71 1023.9
20260507171530 65 63 0.0 0.0 0.00 0.00 0.00 70 1024.0
20260507170028 64 82 0.0 0.0 0.00 0.00 0.00 73 1024.2
20260507164526 63 264 0.0 0.0 0.00 0.00 0.00 75 1024.3
20260507163022 62 292 0.0 0.0 0.00 0.00 0.00 77 1024.3
20260507161523 61 262 0.0 0.0 0.00 0.00 0.00 75 1024.5
20260507160018 61 255 0.0 0.0 0.00 0.00 0.00 79 1024.6
20260507154515 59 262 0.0 0.0 0.00 0.00 0.00 81 1024.7
20260507153010 58 262 0.0 0.0 0.00 0.00 0.00 84 1024.7
20260507151506 55 279 0.0 0.0 0.00 0.00 0.00 87 1024.9
20260507150006 53 98 0.0 0.0 0.00 0.00 0.00 92 1024.8
20260507144508 51 98 0.0 0.0 0.00 0.00 0.00 93 1024.9
20260507143112 50 98 0.0 0.0 0.00 0.00 0.00 92 1024.9
20260507141603 49 98 0.0 0.0 0.00 0.00 0.00 93 1024.8
20260507140058 48 98 0.0 0.0 0.00 0.00 0.00 94 1024.7
20260507134603 46 98 0.0 0.0 0.00 0.00 0.00 94 1024.5
20260507133123 46 98 0.0 0.0 0.00 0.00 0.00 94 1024.3
20260507131555 46 98 0.0 0.0 0.00 0.00 0.00 93 1024.3
20260507130106 46 98 0.0 0.0 0.00 0.00 0.00 93 1024.2
20260507124552 46 98 0.0 0.0 0.00 0.00 0.00 93 1024.2
20260507123053 47 98 0.0 0.0 0.00 0.00 0.00 93 1024.1
20260507121604 47 98 0.0 0.0 0.00 0.00 0.00 92 1024.1
20260507120056 47 98 0.0 0.0 0.00 0.00 0.00 92 1024.3
20260507114627 47 98 0.0 0.0 0.00 0.00 0.00 92 1024.4
20260507113044 47 98 0.0 0.0 0.00 0.00 0.00 91 1024.4
20260507111543 48 98 0.0 0.0 0.00 0.00 0.00 91 1024.5
20260507110042 48 98 0.0 0.0 0.00 0.00 0.00 91 1024.5
20260507104541 48 98 0.0 0.0 0.00 0.00 0.00 91 1024.6
20260507103038 48 98 0.0 0.0 0.00 0.00 0.00 90 1024.6
20260507101541 49 98 0.0 0.0 0.00 0.00 0.00 89 1024.5
20260507100036 49 86 0.0 0.0 0.00 0.00 0.00 89 1024.5
20260507094533 49 94 0.0 0.0 0.00 0.00 0.00 89 1024.6
20260507093031 49 94 0.0 0.0 0.00 0.00 0.00 88 1024.7
20260507091540 50 84 0.0 0.0 0.00 0.00 0.00 88 1024.7
20260507090036 50 84 0.0 0.0 0.00 0.00 0.00 88 1024.7
20260507084528 50 84 0.0 0.0 0.00 0.00 0.00 87 1024.7
20260507083031 51 46 0.0 0.0 0.00 0.00 0.00 88 1024.7
20260507081524 51 91 0.0 0.0 0.00 0.00 0.00 88 1024.7
20260507080023 51 91 0.0 0.0 0.00 0.00 0.00 87 1024.6
20260507074518 52 91 0.0 0.0 0.00 0.00 0.00 85 1024.7
20260507073015 53 91 0.0 0.0 0.00 0.00 0.00 84 1024.6
20260507071513 53 91 0.0 0.0 0.00 0.00 0.00 83 1024.7
20260507070013 54 91 0.0 0.0 0.00 0.00 0.00 83 1024.7
20260507064510 55 89 0.0 0.0 0.00 0.00 0.00 82 1024.6
20260507063010 55 84 0.0 0.0 0.00 0.00 0.00 82 1024.7
20260507061510 56 84 0.0 0.0 0.00 0.00 0.00 80 1024.7
20260507060013 57 84 0.0 0.0 0.00 0.00 0.00 80 1024.6
20260507054517 58 84 0.0 0.0 0.00 0.00 0.00 79 1024.6
20260507053125 58 68 0.0 0.0 0.00 0.00 0.00 80 1024.6